This is the latest recevied weather packets stored in our database for station/object WV8BRW. If no packets are shown the sender has not sent any weather packets the latest 10 day(s).
| Time | Temp. | Humidity | Pressure | Rain* | Wind** | Luminosity | Snow |
|---|---|---|---|---|---|---|---|
| 1777856880 | 11.11° C | 66% | 1012.9 hPa | 0 mm | - | 0 W/m² | - |
| 1777856576 | 11.11° C | 66% | 1013.2 hPa | 0 mm | - | 0 W/m² | - |
| 1777856273 | 11.67° C | 66% | 1013.1 hPa | 0 mm | - | 0 W/m² | - |
| 1777855970 | 11.67° C | 65% | 1013.1 hPa | 0 mm | - | 0 W/m² | - |
| 1777855668 | 11.67° C | 64% | 1013.3 hPa | 0 mm | - | 0 W/m² | - |
| 1777855365 | 11.67° C | 64% | 1013.3 hPa | 0 mm | - | 0 W/m² | - |
| 1777855061 | 12.22° C | 63% | 1013.3 hPa | 0 mm | - | 0 W/m² | - |
| 1777854758 | 12.22° C | 63% | 1013.1 hPa | 0 mm | - | 0 W/m² | - |
| 1777854455 | 12.22° C | 61% | 1013 hPa | 0 mm | - | 0 W/m² | - |
| 1777854152 | 12.78° C | 60% | 1013.1 hPa | 0 mm | - | 0 W/m² | - |
| 1777853850 | 12.78° C | 55% | 1013.2 hPa | 0 mm | - | 2 W/m² | - |
| 1777853546 | 12.78° C | 54% | 1013.1 hPa | 0 mm | - | 4 W/m² | - |
| 1777853243 | 13.33° C | 54% | 1013.2 hPa | 0 mm | - | 7 W/m² | - |
| 1777852940 | 12.78° C | 54% | 1013.2 hPa | 0 mm | - | 7 W/m² | - |
| 1777852638 | 13.33° C | 57% | 1013.3 hPa | 0 mm | - | 10 W/m² | - |
| 1777852335 | 13.89° C | 56% | 1013.1 hPa | 0 mm | - | 13 W/m² | - |
| 1777852033 | 14.44° C | 54% | 1012.9 hPa | 0 mm | - | 19 W/m² | - |
| 1777851731 | 14.44° C | 52% | 1013.1 hPa | 0 mm | - | 24 W/m² | - |
| 1777851428 | 15° C | 52% | 1013.2 hPa | 0 mm | - | 35 W/m² | - |
| 1777851123 | 15.56° C | 49% | 1013.1 hPa | 0 mm | - | 49 W/m² | - |
| 1777850820 | 15° C | 43% | 1013 hPa | 0 mm | - | 42 W/m² | - |
| 1777850517 | 15.56° C | 43% | 1013.4 hPa | 0 mm | - | 32 W/m² | - |
| 1777850216 | 15.56° C | 42% | 1013.2 hPa | 0 mm | - | 64 W/m² | - |
| 1777849911 | 15.56° C | 47% | 1013.5 hPa | 0 mm | - | 38 W/m² | - |
| 1777849608 | 15.56° C | 44% | 1013.6 hPa | 0 mm | - | 40 W/m² | - |
* Rain latest hour (hover to see other rain measurements)
** Current wind speed in m/s (hover to see current wind gust speed)